Temp
53 53 52 52 51 51 51 51 51 51 50 50 50 50 50 50 50 39 34 35 28 13 24 28 29 20 22 20 8 16 16 17 12 8 9 4 3 4 4 12 11 1 3 6 9 3 5 22 22 13 18 22 23 24
53 52 52 51 51 51 51 51 50 50 50 50 50 50 50 50 50 43 33 35 35 25 24 30 32 33 31 31 28 17 17 19 22 11 10 14 10 4 0 1 14 2 2 2 11 11 21 23 21 25 25 21 23 24
51 51 51 51 50 50 50 50 50 50 50 49 49 50 50 49 49 42 31 31 26 16 20 21 23 30 33 32 32 16 20 21 20 26 20 16 9 16 2 3 6 9 11 5 9 15 16 19 22 24 25 23 26 27
50 50 51 50 50 50 50 50 50 49 49 49 49 49 49 49 48 41 32 30 27 18 13 19 32 27 32 33 31 31 24 25 26 24 22 14 14 20 13 7 3 6 9 7 8 13 16 20 21 22 22 25 26 27
49 50 50 50 50 49 49 49 49 48 48 48 48 48 48 47 46 37 32 34 35 23 14 19 26 29 31 31 30 25 21 12 12 11 14 15 14 16 12 3 -3 6 7 3 4 14 13 14 21 22 21 24 25 25
49 49 49 49 49 49 49 48 48 48 48 48 47 47 46 46 42 33 28 35 36 28 23 14 24 20 28 27 22 20 17 11 6 6 7 14 18 16 5 -0 1 4 11 15 11 17 16 17 20 23 24 25 27 25
49 49 49 49 49 49 48 48 47 47 47 47 47 45 45 45 33 32 30 34 38 30 25 10 15 23 21 20 22 21 19 13 11 1 4 1 8 12 7 -1 5 10 10 13 16 17 15 20 21 25 25 25 27 26
48 49 49 48 48 48 47 47 47 47 46 46 45 45 46 45 41 31 35 40 33 30 24 5 11 16 23 18 19 23 25 22 14 5 2 2 7 7 1 1 2 4 10 12 15 18 20 23 24 24 25 25 23 23
48 48 48 47 47 47 47 47 46 46 45 44 45 43 35 29 28 26 40 35 28 22 10 4 4 2 21 19 15 20 26 13 16 5 4 12 3 -6 2 5 3 9 11 12 16 18 20 20 21 22 23 23 22 22
48 47 47 47 47 47 46 46 45 45 44 43 33 23 14 22 39 35 22 15 14 10 10 4 14 6 12 18 16 14 20 17 6 10 14 5 0 10 9 13 13 13 15 16 13 14 17 18 19 21 21 23 23 23
47 47 47 47 46 46 45 44 44 44 40 30 17 15 23 34 22 10 3 4 3 2 11 9 5 4 15 12 15 20 14 13 3 10 7 -1 -1 7 14 15 17 17 18 18 19 19 20 20 20 21 21 23 23 23
47 47 46 46 46 45 44 43 41 32 24 29 26 25 22 11 4 4 -9 1 3 5 11 4 5 7 12 21 16 18 12 8 3 13 1 -2 5 10 13 15 16 17 18 18 19 19 20 20 21 21 21 22 23 24
46 46 46 46 45 44 43 42 41 39 34 24 15 8 9 2 2 -4 -7 -2 -2 7 6 5 4 9 19 21 17 13 6 3 18 3 0 1 6 10 13 15 16 17 18 18 19 20 20 20 21 21 21 22 23 23
46 46 46 45 44 43 43 42 41 34 23 10 6 6 -1 -6 -4 -1 -1 0 5 2 5 6 9 13 18 15 16 7 13 12 0 -3 0 1 5 9 14 15 16 15 17 18 18 19 20 20 20 21 21 22 23 22
46 46 45 43 43 43 42 41 37 25 15 6 5 1 -4 2 -6 -5 -3 2 9 10 13 11 13 14 13 12 14 11 4 -3 5 4 5 5 9 12 14 16 16 16 17 17 18 19 19 20 20 19 21 21 22 23
45 43 38 43 42 42 40 33 26 20 4 3 -2 -1 1 -1 -4 -3 -2 4 12 12 15 15 4 1 4 11 6 2 1 -1 4 6 10 10 14 15 16 18 17 17 18 18 18 19 19 19 19 19 20 20 20 21
42 34 42 42 42 40 37 21 12 2 3 -0 -1 3 2 -1 0 2 12 12 14 11 7 9 -2 -0 8 2 3 9 4 8 11 11 15 16 15 15 16 18 18 18 17 17 17 18 18 20 20 19 17 19 20 20
32 38 42 41 34 31 20 9 3 1 -2 -2 2 2 8 9 7 9 10 12 12 14 12 2 10 -1 -3 -4 3 7 9 13 15 15 14 15 15 17 19 17 17 17 16 16 16 16 16 16 17 17 18 18 19 19
34 35 42 40 31 15 9 7 6 4 1 1 3 7 10 12 14 8 11 14 17 18 9 2 -3 -8 2 5 5 11 13 15 12 14 13 13 14 16 17 17 17 16 16 15 15 14 15 16 16 17 18 18 17 19
40 41 40 36 30 11 5 2 2 3 -1 5 4 3 5 7 10 10 11 15 15 6 -3 -4 -2 2 3 5 12 16 17 17 15 12 12 13 14 14 15 15 15 15 14 14 16 18 15 15 16 16 19 19 16 16
33 32 32 23 8 4 -1 -8 -1 -3 3 2 0 3 1 3 1 -0 1 14 -2 -10 -7 -3 -2 2 6 13 18 19 18 18 16 15 13 11 13 14 13 14 14 14 11 11 10 12 15 13 14 15 14 16 16 16
27 32 14 18 6 0 1 -5 -1 0 2 -0 1 0 -4 -4 -5 -4 3 -9 -13 -2 -1 -1 2 8 12 13 15 17 19 20 18 18 20 18 12 12 13 13 12 9 11 11 11 11 12 15 14 13 14 13 15 15
29 24 9 5 8 3 -1 -3 -1 -8 -1 -3 -7 -4 -6 -6 -2 5 -6 -6 -1 1 4 7 8 12 14 15 16 16 17 16 14 13 13 12 12 14 13 12 12 8 8 10 12 11 10 17 15 11 11 11 10 9
22 5 1 -1 -3 -2 -4 -8 -4 -8 -11 -9 -10 -6 -7 -7 -3 -5 -4 -4 2 8 10 11 11 13 13 14 13 13 14 15 13 12 12 11 10 9 12 12 12 11 12 11 10 9 10 9 13 9 9 6 5 3
12 5 1 -3 -8 -4 -7 -8 -12 -5 -7 -15 -9 -7 -6 -5 -4 -6 -3 0 3 7 12 14 15 15 12 12 12 12 14 14 12 10 10 10 7 7 10 11 11 11 11 6 8 8 8 7 7 6 7 7 2 -2
1 -3 1 -6 -4 1 -3 -3 -8 -7 -10 -10 -10 -11 -14 -5 -4 -4 1 -0 1 6 12 13 14 14 12 14 12 12 13 15 14 10 10 11 9 7 5 7 6 8 11 6 2 3 5 7 5 2 4 4 12 -1
-1 -2 2 11 6 4 2 1 2 -3 -10 -6 -8 -9 -9 -8 -8 3 4 5 5 7 14 16 16 15 14 14 14 13 13 11 11 10 11 11 10 9 10 7 6 10 10 6 4 4 3 5 4 3 1 1 -0 -3
2 2 0 -1 -1 -1 -3 -5 -8 -7 -5 -0 -0 -7 -6 -1 3 4 4 3 0 5 10 11 13 15 14 13 12 10 8 8 9 9 10 8 6 5 5 5 6 18 6 4 4 4 4 5 3 3 1 0 -1 -1
-2 4 5 -8 -10 -9 -8 -4 -3 -0 4 1 -3 -3 -2 4 1 1 4 3 0 7 9 9 7 8 8 8 8 7 8 9 9 6 6 6 6 7 4 2 3 3 2 3 15 15 10 6 4 1 -1 -2 -2 -6
-3 -1 -5 -14 -5 -3 -5 -3 -5 -5 -0 -1 -1 -1 1 1 1 1 1 -2 2 4 6 8 8 8 6 8 5 4 3 4 5 8 7 6 9 9 7 5 4 2 1 1 1 2 15 5 5 0 -2 -6 -7 -9
-2 -7 -7 -7 -6 -8 -7 -9 -7 -1 -6 -9 -10 -7 -4 -4 0 -1 -2 -4 -6 -5 5 5 7 6 8 8 7 6 6 6 6 7 5 5 4 7 8 6 5 4 2 0 -0 -0 -2 -3 -4 -7 -9 -11 -13 -11
-4 -11 -6 -4 -4 -7 -7 -11 -10 -11 -10 -10 -9 -11 -9 -8 -6 -2 -5 -7 -6 -4 7 4 3 8 11 13 12 11 17 11 10 10 10 9 8 8 8 6 4 4 3 3 2 -1 -3 -4 -7 -8 -9 -13 -15 -17
-16 -15 -15 -11 -8 -6 -6 -9 -11 -10 -8 -10 -9 -8 -10 -6 -4 -2 -6 -7 -5 -4 -1 -1 7 10 9 12 13 13 16 10 12 18 19 19 18 14 8 8 6 6 5 3 2 -0 -3 -7 -7 -10 -12 -15 -16 -17
MSLP
1022.69 1023.37 1024.01 1024.74 1025.32 1025.73 1026.02 1026.25 1026.31 1026.34 1026.44 1026.44 1026.46 1026.39 1026.21 1025.96 1025.89 1026.38 1026.83 1026.88 1027.34 1027.82 1027.20 1026.91 1026.67 1026.55 1026.70 1027.04 1027.34 1026.80 1026.67 1026.63 1026.41 1026.62 1026.90 1026.79 1027.07 1026.64 1026.59 1025.63 1025.30 1025.59 1025.62 1024.47 1023.16 1022.24 1021.61 1020.75 1020.17 1020.09 1021.35 1019.67 1018.93 1017.86
1022.35 1023.08 1023.73 1024.41 1025.01 1025.46 1025.78 1026.02 1026.06 1026.07 1026.15 1026.22 1026.26 1026.17 1026.02 1025.86 1025.60 1025.92 1026.83 1026.88 1027.05 1027.79 1027.01 1026.32 1026.02 1025.70 1025.75 1025.79 1026.39 1027.02 1027.61 1027.50 1027.04 1027.18 1027.23 1027.02 1027.11 1027.20 1027.35 1027.22 1026.42 1026.97 1027.33 1027.30 1025.73 1024.11 1023.02 1022.35 1022.15 1022.09 1021.70 1020.82 1019.35 1018.39
1022.07 1022.92 1023.54 1024.10 1024.74 1025.21 1025.57 1025.86 1025.81 1025.80 1025.84 1025.97 1026.01 1025.83 1025.65 1025.52 1025.47 1025.87 1026.69 1027.17 1027.56 1028.22 1027.57 1026.62 1025.51 1025.03 1025.11 1025.31 1025.63 1026.98 1027.07 1027.13 1027.20 1026.81 1026.83 1026.80 1027.06 1026.96 1027.63 1028.12 1028.22 1027.98 1027.95 1027.54 1026.41 1024.67 1023.95 1022.98 1022.22 1022.14 1021.93 1021.39 1020.15 1019.20
1021.92 1022.83 1023.36 1023.82 1024.40 1024.86 1025.25 1025.44 1025.50 1025.46 1025.47 1025.62 1025.65 1025.52 1025.47 1025.42 1025.36 1025.78 1026.76 1027.17 1027.40 1028.12 1028.48 1026.77 1025.53 1025.24 1024.86 1025.03 1025.49 1025.93 1026.54 1026.78 1027.09 1026.79 1026.70 1026.87 1027.09 1026.95 1027.71 1028.89 1029.79 1029.98 1029.07 1028.33 1026.89 1025.35 1024.03 1023.00 1023.04 1022.32 1021.16 1020.10 1019.15 1018.35
1021.81 1022.61 1023.22 1023.67 1024.13 1024.62 1024.95 1025.06 1025.21 1025.27 1025.31 1025.31 1025.35 1025.35 1025.27 1025.19 1025.35 1026.04 1026.75 1026.91 1026.92 1027.75 1028.25 1027.28 1026.18 1025.49 1025.16 1025.27 1025.62 1026.04 1026.65 1027.56 1027.96 1027.96 1027.94 1027.94 1027.77 1027.85 1028.62 1029.81 1031.05 1030.97 1030.48 1029.82 1027.76 1026.16 1026.10 1023.91 1022.39 1021.92 1021.18 1020.01 1018.95 1018.18
1021.69 1022.42 1023.03 1023.47 1024.02 1024.37 1024.55 1024.83 1024.96 1025.00 1025.04 1024.99 1024.96 1025.11 1025.15 1025.04 1025.65 1026.37 1026.88 1026.93 1026.79 1027.13 1027.82 1027.94 1026.87 1026.22 1025.60 1025.54 1025.95 1026.32 1026.91 1027.89 1028.49 1029.44 1029.49 1029.11 1028.97 1028.95 1029.72 1030.91 1031.15 1030.74 1030.31 1029.69 1028.45 1026.81 1025.97 1024.23 1022.84 1021.57 1020.57 1019.77 1019.01 1018.71
1021.61 1022.30 1022.74 1023.33 1023.86 1024.11 1024.39 1024.59 1024.73 1024.82 1024.77 1024.74 1024.72 1024.95 1025.04 1025.21 1026.11 1026.33 1026.80 1026.89 1026.69 1027.17 1027.89 1028.38 1027.81 1026.85 1026.56 1026.27 1026.14 1026.43 1026.85 1028.00 1028.84 1029.73 1030.17 1030.50 1030.01 1029.91 1030.79 1031.64 1031.37 1030.50 1029.64 1028.47 1027.65 1026.74 1025.19 1023.75 1022.90 1021.98 1021.26 1020.57 1020.08 1019.69
1021.54 1022.02 1022.62 1023.27 1023.69 1023.95 1024.22 1024.47 1024.59 1024.60 1024.62 1024.70 1024.93 1024.91 1024.94 1025.41 1026.10 1026.60 1026.90 1026.78 1026.93 1027.45 1028.33 1029.52 1029.03 1027.99 1027.46 1027.27 1026.99 1026.64 1027.02 1027.86 1028.86 1029.79 1030.68 1031.06 1031.07 1031.20 1031.82 1031.81 1031.04 1030.36 1029.14 1027.88 1027.14 1026.36 1025.47 1024.36 1023.42 1022.71 1022.01 1021.47 1021.04 1020.51
1021.34 1021.93 1022.61 1023.20 1023.54 1023.74 1023.99 1024.22 1024.35 1024.54 1024.65 1025.00 1025.24 1025.55 1026.02 1026.67 1026.95 1027.38 1027.15 1027.35 1027.56 1028.57 1029.48 1030.45 1030.62 1029.67 1028.27 1027.91 1027.58 1026.99 1026.87 1027.89 1028.94 1029.92 1030.67 1031.11 1032.12 1032.41 1032.19 1031.63 1030.78 1030.03 1029.52 1028.43 1027.21 1026.29 1025.37 1024.61 1023.96 1023.37 1022.81 1022.35 1021.89 1021.52
1021.25 1021.94 1022.59 1023.03 1023.37 1023.67 1023.83 1024.03 1024.21 1024.36 1024.77 1025.21 1025.78 1026.68 1027.63 1027.60 1027.11 1027.42 1027.90 1028.57 1029.44 1030.43 1030.55 1031.54 1031.54 1030.80 1029.87 1028.71 1028.05 1027.70 1027.25 1027.69 1028.91 1029.77 1030.17 1031.16 1032.33 1032.01 1031.67 1031.06 1030.41 1029.76 1029.05 1028.24 1027.41 1026.61 1025.96 1025.31 1024.71 1024.19 1023.74 1023.22 1022.76 1022.38
1021.30 1021.89 1022.37 1022.82 1023.23 1023.51 1023.72 1023.90 1024.15 1024.35 1025.06 1025.92 1026.84 1027.72 1028.16 1027.67 1028.12 1029.27 1030.76 1031.51 1032.33 1032.56 1032.51 1032.71 1032.49 1031.93 1030.19 1029.59 1028.68 1027.94 1027.69 1028.23 1029.06 1029.65 1030.42 1031.75 1032.13 1031.96 1031.25 1030.72 1030.10 1029.49 1028.85 1028.26 1027.79 1027.24 1026.61 1025.98 1025.43 1024.96 1024.42 1023.97 1023.55 1023.25
1021.33 1021.84 1022.26 1022.62 1023.07 1023.37 1023.61 1023.89 1024.12 1024.94 1025.67 1026.21 1026.88 1028.02 1028.75 1030.15 1031.08 1032.18 1033.83 1033.90 1033.89 1033.76 1033.35 1033.19 1032.71 1031.89 1030.46 1029.25 1028.81 1028.07 1028.21 1028.79 1029.21 1029.68 1030.89 1031.96 1032.01 1031.65 1031.08 1030.65 1030.10 1029.51 1028.95 1028.50 1028.04 1027.54 1027.00 1026.53 1026.15 1025.63 1025.24 1024.88 1024.49 1024.18
1021.38 1021.89 1022.19 1022.63 1023.13 1023.42 1023.73 1023.92 1024.08 1024.72 1025.56 1026.67 1027.84 1029.90 1031.22 1033.00 1034.11 1034.82 1035.58 1035.21 1034.68 1034.16 1033.91 1033.55 1032.84 1031.65 1030.20 1029.12 1028.77 1028.72 1028.78 1029.34 1029.47 1030.51 1031.53 1032.03 1031.95 1031.52 1031.07 1030.72 1030.20 1029.68 1029.22 1028.85 1028.43 1027.99 1027.63 1027.36 1026.83 1026.42 1026.19 1025.83 1025.45 1025.16
1021.57 1022.01 1022.33 1022.77 1023.28 1023.55 1023.80 1024.12 1024.57 1025.32 1026.43 1028.62 1030.33 1032.74 1034.16 1035.13 1035.45 1035.71 1035.62 1035.20 1034.39 1034.13 1033.63 1033.31 1032.74 1031.68 1030.18 1029.20 1028.97 1029.24 1029.24 1029.56 1030.43 1031.38 1031.65 1032.23 1031.81 1031.48 1031.16 1030.79 1030.26 1030.03 1029.79 1029.51 1029.16 1028.76 1028.53 1028.12 1027.73 1027.42 1027.19 1026.85 1026.48 1026.24
1021.67 1022.07 1022.63 1023.14 1023.49 1023.71 1023.96 1024.33 1025.06 1026.12 1027.95 1030.75 1032.21 1034.49 1035.14 1035.10 1035.34 1035.53 1035.41 1034.91 1033.78 1033.35 1033.10 1032.78 1032.30 1031.79 1030.43 1029.80 1029.67 1029.72 1029.86 1030.54 1030.83 1031.17 1031.40 1031.65 1031.65 1031.40 1031.17 1030.84 1030.50 1030.46 1030.31 1030.03 1029.70 1029.59 1029.30 1028.84 1028.51 1028.39 1028.24 1027.87 1027.54 1027.32
1021.65 1022.48 1023.11 1023.37 1023.54 1023.96 1024.49 1025.28 1026.18 1027.12 1029.98 1032.01 1033.59 1035.07 1035.19 1035.67 1035.74 1035.36 1034.82 1034.26 1033.25 1032.91 1032.78 1032.70 1032.33 1031.99 1031.07 1030.63 1030.58 1030.41 1030.78 1030.87 1030.94 1031.21 1031.28 1031.35 1031.45 1031.45 1031.20 1030.94 1030.97 1030.96 1030.79 1030.63 1030.55 1030.32 1029.99 1029.65 1029.43 1029.42 1029.14 1028.81 1028.65 1028.42
1021.90 1022.86 1023.09 1023.31 1023.64 1024.34 1025.23 1026.33 1027.57 1030.18 1031.66 1033.47 1034.60 1034.20 1034.33 1034.58 1034.87 1034.36 1033.91 1033.35 1032.97 1032.89 1032.69 1032.68 1032.93 1032.34 1031.83 1031.42 1031.22 1030.84 1030.96 1031.00 1030.96 1031.32 1031.43 1031.56 1031.62 1031.58 1031.46 1031.35 1031.27 1031.18 1031.10 1031.23 1031.15 1030.91 1030.71 1030.52 1030.32 1030.02 1029.89 1029.87 1029.65 1029.46
1022.56 1022.81 1023.11 1023.37 1024.32 1025.32 1026.76 1027.96 1029.80 1031.72 1033.76 1034.52 1034.98 1034.32 1033.96 1033.91 1033.95 1033.74 1033.49 1033.15 1032.95 1032.78 1032.79 1032.99 1032.97 1033.14 1032.88 1032.22 1031.55 1031.11 1031.16 1031.19 1031.30 1031.58 1031.78 1031.92 1031.91 1031.80 1031.70 1031.70 1031.67 1031.67 1031.76 1031.81 1031.72 1031.66 1031.52 1031.29 1031.04 1030.98 1030.86 1030.67 1030.46 1030.22
1022.80 1023.12 1023.02 1023.81 1024.75 1026.18 1028.80 1030.39 1030.81 1033.13 1034.15 1034.16 1034.19 1033.92 1033.78 1033.60 1033.37 1033.40 1033.11 1032.96 1032.79 1032.89 1033.28 1033.51 1033.98 1034.14 1033.12 1032.27 1031.62 1031.11 1031.11 1031.21 1031.58 1031.95 1032.19 1032.27 1032.26 1032.17 1032.10 1032.08 1032.03 1032.13 1032.31 1032.35 1032.29 1032.29 1032.29 1032.20 1032.02 1031.75 1031.53 1031.37 1031.22 1031.07
1023.02 1023.18 1023.75 1024.70 1025.20 1027.61 1030.73 1032.31 1032.13 1032.96 1034.13 1033.97 1034.20 1034.27 1034.05 1033.74 1033.70 1033.55 1033.37 1033.04 1033.31 1033.79 1034.19 1034.56 1034.16 1033.63 1032.98 1032.33 1031.56 1030.98 1030.96 1031.18 1031.59 1032.15 1032.49 1032.63 1032.68 1032.59 1032.59 1032.65 1032.78 1033.00 1033.10 1033.05 1032.85 1032.84 1032.82 1032.70 1032.57 1032.40 1032.19 1032.06 1031.93 1031.77
1023.67 1024.61 1025.00 1025.60 1027.96 1029.13 1031.87 1033.58 1033.81 1033.94 1034.15 1034.41 1034.72 1034.51 1034.68 1034.44 1034.48 1034.24 1034.03 1033.79 1034.36 1034.80 1034.60 1034.25 1033.87 1033.26 1032.50 1031.97 1031.30 1030.95 1031.07 1031.22 1031.42 1031.79 1032.16 1032.71 1032.93 1033.00 1033.22 1033.40 1033.57 1033.61 1033.76 1033.85 1033.79 1033.67 1033.41 1033.38 1033.39 1033.27 1033.07 1032.85 1032.65 1032.49
1024.52 1024.83 1026.12 1026.89 1029.09 1030.95 1032.72 1034.06 1034.33 1034.49 1034.62 1035.23 1035.32 1035.29 1035.52 1035.48 1035.32 1034.64 1034.55 1034.69 1034.65 1033.93 1033.87 1033.46 1033.18 1032.72 1032.32 1031.95 1031.51 1031.28 1031.17 1031.31 1031.56 1031.83 1032.18 1032.64 1033.34 1033.67 1033.87 1033.97 1034.07 1034.23 1034.36 1034.55 1034.63 1034.47 1034.16 1033.97 1033.95 1033.89 1033.67 1033.56 1033.36 1033.11
1024.70 1025.43 1027.29 1028.73 1030.57 1032.17 1034.43 1034.34 1034.92 1035.63 1035.94 1036.51 1036.35 1036.36 1036.15 1035.81 1035.21 1034.83 1035.00 1034.36 1033.82 1033.10 1032.86 1032.75 1032.53 1032.26 1032.14 1032.00 1031.78 1031.73 1031.67 1031.76 1032.12 1032.56 1033.02 1033.41 1033.65 1033.91 1034.10 1034.38 1034.60 1034.81 1035.02 1035.22 1035.20 1035.06 1034.91 1034.49 1034.53 1034.61 1034.46 1034.36 1034.32 1034.27
1025.94 1028.01 1029.98 1031.02 1032.33 1033.91 1034.39 1035.41 1035.69 1036.27 1036.41 1036.78 1037.11 1036.87 1036.57 1035.98 1035.31 1034.92 1035.14 1034.25 1033.05 1032.52 1032.48 1032.35 1032.25 1032.19 1032.20 1032.15 1032.16 1032.24 1032.28 1032.40 1032.78 1033.24 1033.51 1033.76 1034.21 1034.48 1034.53 1034.82 1035.08 1035.21 1035.29 1035.50 1035.61 1035.61 1035.57 1035.51 1035.27 1035.24 1035.18 1035.19 1035.25 1035.19
1027.86 1031.30 1031.90 1032.64 1033.47 1034.08 1035.15 1035.77 1035.95 1036.29 1036.89 1037.44 1037.31 1036.99 1036.63 1036.00 1035.68 1035.51 1034.70 1033.24 1032.63 1032.25 1031.99 1032.01 1031.97 1031.91 1031.99 1032.20 1032.43 1032.60 1032.70 1032.82 1033.14 1033.65 1034.00 1034.13 1034.64 1034.91 1035.12 1035.31 1035.52 1035.64 1035.65 1035.79 1035.91 1035.92 1036.03 1036.06 1035.84 1035.73 1035.71 1035.75 1035.92 1036.07
1029.74 1031.96 1032.64 1032.93 1033.36 1033.77 1034.64 1035.26 1035.65 1036.11 1036.64 1036.94 1036.89 1036.96 1036.39 1036.17 1035.96 1034.95 1033.34 1032.46 1032.04 1031.72 1031.45 1031.46 1031.46 1031.62 1031.88 1032.07 1032.39 1032.68 1032.92 1033.05 1033.37 1033.84 1034.25 1034.46 1034.79 1035.06 1035.32 1035.49 1035.66 1035.68 1035.65 1035.91 1036.21 1036.30 1036.40 1036.34 1036.22 1036.25 1036.29 1036.35 1036.46 1036.60
1031.09 1032.47 1032.78 1032.37 1032.69 1033.34 1034.19 1034.69 1034.99 1035.40 1035.98 1036.13 1036.34 1036.55 1036.55 1036.07 1034.65 1032.95 1032.00 1031.74 1031.68 1031.25 1030.78 1030.93 1031.07 1031.30 1031.57 1032.00 1032.44 1032.76 1033.07 1033.33 1033.59 1033.81 1033.86 1034.37 1034.80 1035.00 1035.13 1035.39 1035.38 1035.48 1035.60 1036.02 1036.23 1036.34 1036.39 1036.30 1036.23 1036.41 1036.62 1036.75 1036.95 1037.14
1031.94 1032.52 1032.79 1033.16 1033.25 1033.70 1034.39 1034.95 1035.46 1035.28 1035.12 1035.20 1035.45 1035.88 1035.46 1034.41 1033.01 1031.93 1031.76 1031.64 1031.61 1031.27 1031.06 1031.04 1031.05 1031.21 1031.64 1032.03 1032.49 1033.08 1033.64 1033.84 1034.04 1034.22 1034.46 1034.88 1035.26 1035.37 1035.39 1035.49 1035.47 1034.64 1035.86 1036.18 1036.24 1036.17 1036.08 1036.06 1036.20 1036.57 1036.93 1037.11 1037.30 1037.44
1032.82 1032.98 1033.15 1034.17 1034.77 1034.81 1034.92 1034.93 1034.92 1034.67 1034.48 1034.77 1035.18 1034.91 1033.98 1032.99 1032.22 1031.85 1031.83 1031.73 1031.55 1031.64 1031.72 1031.79 1031.99 1031.97 1032.20 1032.52 1032.88 1033.26 1033.51 1033.73 1034.05 1034.42 1034.60 1034.93 1035.16 1035.37 1035.49 1035.71 1035.86 1035.96 1036.17 1036.14 1035.15 1035.03 1035.61 1035.52 1035.62 1036.29 1037.04 1037.54 1037.82 1037.90
1033.93 1033.85 1034.39 1034.77 1035.20 1035.52 1035.46 1035.38 1035.39 1035.24 1034.91 1034.96 1034.93 1034.51 1033.93 1032.94 1032.08 1031.87 1032.02 1032.17 1032.31 1032.13 1031.80 1031.78 1031.94 1032.13 1032.38 1032.64 1033.12 1033.53 1033.58 1033.58 1033.63 1033.87 1034.07 1034.36 1034.32 1034.27 1034.73 1035.29 1035.72 1036.10 1036.42 1036.49 1036.27 1036.28 1035.36 1036.27 1036.32 1037.09 1037.28 1037.85 1038.03 1038.07
1034.71 1034.76 1035.08 1035.47 1035.52 1035.79 1035.86 1035.86 1035.59 1035.45 1035.48 1035.52 1035.65 1035.53 1034.82 1033.93 1032.50 1031.90 1032.07 1032.25 1032.49 1032.35 1032.22 1032.25 1032.20 1032.15 1032.19 1032.36 1032.58 1032.81 1033.10 1033.13 1033.23 1033.43 1033.58 1033.74 1033.91 1034.11 1034.40 1034.87 1035.31 1035.74 1036.16 1036.43 1036.38 1036.40 1036.51 1036.87 1037.17 1037.65 1038.13 1038.50 1038.68 1038.59
1035.50 1036.12 1036.18 1036.28 1036.09 1036.04 1036.13 1036.20 1036.26 1036.17 1036.03 1035.93 1035.79 1035.64 1035.15 1034.86 1033.91 1032.50 1032.59 1032.61 1032.77 1032.79 1032.28 1032.18 1032.10 1031.83 1031.78 1031.77 1031.86 1031.99 1032.00 1032.20 1032.42 1032.78 1033.21 1033.56 1033.84 1034.02 1034.27 1034.74 1035.21 1035.57 1035.91 1036.21 1036.41 1036.59 1036.81 1037.17 1037.68 1038.17 1038.51 1038.82 1039.09 1039.02
1036.83 1036.95 1036.78 1036.68 1036.71 1036.60 1036.51 1036.58 1036.34 1036.24 1035.94 1035.75 1035.46 1035.40 1035.23 1034.96 1034.05 1032.86 1032.75 1032.87 1032.84 1032.57 1032.55 1032.06 1031.55 1031.49 1031.42 1031.39 1031.52 1031.67 1031.59 1032.22 1032.20 1032.04 1032.30 1032.59 1032.92 1033.49 1034.15 1034.46 1034.84 1035.17 1035.47 1035.85 1036.21 1036.55 1036.95 1037.39 1037.80 1038.14 1038.45 1038.76 1038.90 1038.94
Wind_Speed
22 21 18 15 12 10 7 6 4 3 3 5 5 7 9 8 8 4 2 2 4 3 5 5 4 3 1 0 2 5 5 4 4 5 2 2 1 3 2 4 5 2 5 4 5 5 5 19 5 11 9 13 18 17
22 20 18 15 12 10 8 6 4 3 4 5 6 8 10 9 9 4 1 1 2 3 6 2 5 6 7 8 2 1 4 1 2 2 1 2 2 1 2 4 3 5 5 3 1 4 9 14 5 6 12 14 14 14
22 20 18 15 12 9 7 5 5 3 5 5 7 10 9 9 9 5 2 2 4 3 5 3 2 1 3 5 4 3 2 3 4 2 2 3 2 2 1 3 3 6 4 1 7 3 14 12 2 13 14 15 15 11
22 20 18 15 12 9 6 4 3 3 4 5 8 9 9 9 9 6 3 2 3 3 1 6 3 3 2 2 3 3 3 2 2 2 3 2 2 1 1 2 4 2 7 6 6 4 14 4 15 16 19 16 14 11
22 20 17 15 12 9 7 3 1 1 5 6 8 9 9 8 5 5 2 2 2 5 3 4 6 3 3 2 4 3 3 3 2 3 3 2 2 3 3 4 3 1 2 2 6 12 10 16 18 23 16 13 14 12
22 20 17 14 11 9 6 4 2 3 5 6 7 8 5 0 10 2 1 1 1 3 2 4 3 4 4 4 3 2 3 2 4 4 2 2 2 2 2 0 5 4 4 9 7 11 17 21 17 16 13 13 12 11
21 20 17 14 11 7 7 4 1 3 5 6 7 3 1 11 3 1 1 2 3 2 1 4 5 3 2 2 2 1 3 1 4 1 2 2 3 3 2 2 8 11 11 13 10 10 9 5 10 11 11 11 11 8
22 19 17 13 10 7 6 2 1 3 5 5 2 4 8 11 8 3 3 5 3 2 3 2 5 4 5 3 3 2 1 2 4 3 2 2 3 2 1 6 8 8 12 8 9 9 10 9 8 10 8 8 9 10
21 19 15 12 9 6 5 1 2 4 5 5 9 11 5 5 2 1 5 8 3 4 2 3 2 4 5 2 2 3 1 1 2 2 1 3 3 2 6 7 7 9 6 11 13 7 7 7 9 9 10 10 9 10
20 17 14 12 8 8 4 3 4 5 8 11 5 5 3 2 6 5 7 5 6 5 5 2 1 3 2 3 3 2 1 2 1 3 2 4 2 4 4 6 6 8 8 8 6 7 7 7 8 9 8 8 9 9
19 16 14 11 10 7 5 5 6 10 9 3 2 2 2 6 4 5 3 5 4 5 3 2 1 1 2 1 3 1 2 0 2 3 4 1 3 3 5 7 6 7 7 6 5 4 6 6 7 7 9 10 10 11
18 16 13 13 10 8 7 6 9 5 3 4 5 4 3 6 5 7 1 4 4 1 3 1 3 3 4 2 2 2 1 3 2 1 5 2 3 4 5 6 7 8 8 8 8 8 9 10 8 8 9 10 10 10
17 14 13 13 9 9 9 10 13 18 8 4 6 6 5 5 8 5 4 5 3 2 3 3 4 2 3 3 2 2 3 2 1 4 2 4 3 3 4 5 5 8 9 9 10 10 10 9 10 11 10 9 10 10
15 13 15 12 10 10 11 12 13 8 5 5 5 4 4 5 2 5 5 4 4 2 2 1 3 2 3 2 1 1 1 3 3 1 4 2 3 3 3 3 5 7 8 9 9 9 8 8 9 11 10 9 9 10
15 15 14 10 11 12 12 12 10 4 4 4 5 1 1 3 1 3 2 1 3 2 1 2 3 3 3 2 1 2 4 1 2 3 2 2 0 2 3 4 6 6 6 7 8 8 9 9 9 10 9 9 9 9
18 13 4 12 12 14 14 9 4 3 5 5 5 4 1 3 4 2 1 3 1 1 2 2 1 2 2 1 2 2 2 4 3 2 1 1 2 2 3 5 5 5 6 7 7 7 8 8 8 7 8 9 9 8
11 2 12 12 15 14 8 4 4 7 6 5 1 0 3 2 4 3 2 2 1 1 1 1 2 4 2 3 1 1 2 1 2 1 2 3 2 2 2 4 5 6 7 6 5 7 7 6 6 8 9 8 7 7
3 7 15 18 9 5 4 5 6 6 4 1 3 3 1 2 2 1 2 1 1 1 1 2 1 2 3 3 3 1 2 2 3 3 3 3 3 3 3 4 5 6 6 5 6 6 6 7 7 6 6 6 5 6
6 5 13 13 6 6 5 4 4 5 2 2 1 1 2 1 1 2 1 2 2 1 2 2 3 3 3 2 2 1 3 2 2 2 2 3 3 3 4 5 6 6 6 5 5 4 4 5 4 4 4 4 4 4
16 14 15 10 5 5 6 3 2 5 3 3 2 1 2 2 2 1 1 0 0 1 2 1 4 3 3 2 2 1 2 4 4 3 2 1 2 3 4 4 4 4 3 4 3 6 3 4 5 5 3 5 4 4
8 4 8 5 5 7 5 0 4 3 2 3 2 2 1 2 2 1 1 1 3 3 2 4 3 3 4 3 2 1 3 4 3 2 2 3 2 3 3 3 2 3 3 3 3 4 6 4 4 4 3 3 3 4
3 7 4 5 6 5 6 2 4 1 3 1 2 1 2 1 2 2 1 3 3 4 4 3 2 2 1 1 2 2 1 3 3 2 5 8 3 3 2 2 2 2 3 3 2 3 3 3 2 3 3 4 5 3
8 4 5 5 6 6 2 2 4 5 4 3 3 3 3 2 3 1 1 3 4 3 3 2 2 1 2 1 2 3 3 4 4 4 4 3 3 3 4 4 3 3 2 3 2 2 3 5 4 3 3 4 3 4
9 7 5 3 4 2 2 4 2 3 3 4 2 1 2 2 2 3 2 3 3 2 2 3 2 2 2 2 1 1 2 3 4 3 2 4 4 2 3 3 3 2 2 2 1 2 3 3 5 3 3 3 3 3
8 5 5 4 3 5 4 3 5 4 1 1 2 3 2 3 3 1 3 4 1 2 3 4 3 2 2 2 2 1 1 2 4 4 1 3 3 2 3 3 2 2 1 2 2 3 2 2 3 3 3 2 3 3
5 4 3 3 2 4 4 3 2 4 3 1 3 2 2 3 2 6 4 3 3 4 5 5 5 3 2 2 3 3 3 2 4 2 2 3 3 3 3 3 1 0 1 2 2 2 2 2 2 3 3 5 6 4
4 3 2 1 2 3 3 3 3 3 3 4 3 2 4 1 6 5 2 2 2 3 3 4 3 3 3 3 3 2 3 3 2 2 2 3 2 2 3 3 3 2 2 3 2 3 1 3 3 2 2 2 1 1
3 2 5 3 3 1 5 2 3 5 3 2 3 2 6 8 5 3 3 2 2 0 3 3 2 2 3 3 4 5 3 3 5 4 4 3 2 1 2 2 1 5 3 3 3 2 2 2 2 1 0 1 2 2
3 2 3 4 3 2 3 4 4 2 1 3 4 3 5 3 3 2 2 2 1 3 3 3 2 2 4 4 3 2 4 5 6 4 4 2 1 3 3 2 2 2 1 2 3 2 4 2 2 2 3 1 1 1
2 2 4 1 3 2 3 2 2 2 1 1 1 3 3 3 3 1 2 2 3 4 3 2 4 4 4 5 4 2 2 2 2 3 4 4 4 2 5 4 3 2 2 2 1 2 4 4 3 3 2 2 2 2
2 2 4 2 1 2 2 2 2 1 2 1 1 2 3 5 5 2 2 2 3 3 3 3 3 3 4 4 4 3 3 4 6 6 3 1 2 3 4 4 3 3 3 3 2 2 1 1 1 2 2 2 3 3
3 3 2 2 3 2 2 2 1 1 2 2 2 1 3 3 4 3 1 2 3 2 8 5 4 4 5 2 3 2 0 1 5 6 7 3 3 3 4 3 4 3 4 3 3 2 2 2 2 2 2 3 3 3
3 2 2 2 4 3 2 2 3 4 1 2 3 2 2 2 6 4 2 1 3 3 4 3 2 2 3 5 5 3 4 2 4 10 12 11 10 9 4 3 4 4 5 4 3 3 3 3 2 2 3 4 4 4
Wind_Direction
177 177 176 179 183 191 199 222 229 267 303 308 308 313 309 317 321 126 240 170 137 182 269 207 221 173 17 326 173 275 11 348 352 27 44 274 127 273 5 295 335 65 345 344 352 11 360 13 352 36 303 307 319 324
174 177 176 179 183 189 204 223 238 258 295 303 305 306 311 318 315 125 165 349 93 157 239 243 238 237 203 222 240 345 196 255 267 35 284 258 282 31 150 293 11 13 138 228 307 270 342 327 266 356 332 318 318 320
171 176 178 177 183 190 205 223 249 281 302 305 299 306 313 314 318 139 150 140 63 48 314 3 277 46 155 194 164 125 294 212 306 301 298 247 247 150 271 264 337 349 11 229 342 146 337 328 49 333 326 318 308 318
170 179 177 176 180 186 191 221 252 293 310 306 304 313 317 321 320 124 124 165 102 109 144 283 319 282 358 149 171 190 191 338 248 268 231 213 233 351 39 162 98 237 336 319 265 292 320 214 332 315 323 315 331 333
173 177 175 174 176 173 194 198 200 305 309 306 318 319 325 324 114 98 104 202 146 124 225 283 307 293 292 49 321 95 104 84 21 9 2 5 352 358 69 68 27 330 327 323 281 317 293 286 306 312 312 335 334 352
174 173 172 172 169 180 184 157 179 304 312 319 325 327 332 119 120 86 7 358 53 130 25 324 284 327 344 358 40 128 144 120 99 125 237 13 293 322 75 95 249 236 259 259 267 294 292 285 296 301 330 340 357 3
171 171 169 164 172 181 159 165 208 316 329 332 336 346 212 136 97 129 356 215 157 93 194 326 326 312 343 344 339 27 52 107 111 160 56 147 1 41 45 12 297 312 300 297 279 284 292 324 325 336 344 351 1 2
170 170 164 164 166 168 158 156 314 345 349 360 63 140 131 117 98 62 2 360 99 86 57 95 273 355 4 330 331 10 175 58 6 163 21 78 344 29 37 255 287 287 303 307 321 311 293 307 338 351 352 3 11 17
171 164 160 165 176 167 149 113 29 13 34 110 105 88 61 41 82 240 334 72 43 116 141 87 116 272 347 337 257 318 298 71 248 79 319 86 318 31 261 294 303 312 308 293 310 315 335 356 356 4 15 14 29 26
160 158 165 172 168 146 125 89 59 55 126 106 56 62 7 274 308 29 8 22 15 338 28 91 280 284 52 351 310 355 330 107 86 257 111 78 228 253 269 298 296 305 306 319 342 355 340 353 5 12 18 28 34 32
159 162 161 164 150 135 110 90 86 109 81 59 78 133 252 347 54 33 36 69 329 12 12 306 150 290 319 317 302 265 299 22 70 260 113 320 314 275 319 334 330 334 341 354 354 348 3 17 16 17 28 33 37 37
159 159 162 156 141 122 107 103 116 88 135 131 123 84 40 36 30 77 314 330 56 323 327 40 277 213 288 253 277 306 284 37 237 127 73 340 256 288 345 339 346 355 7 15 17 20 24 30 18 31 34 35 35 37
160 163 162 146 134 119 116 97 104 118 104 51 51 53 50 314 41 86 315 315 351 332 335 335 323 253 275 239 256 7 54 233 344 44 223 221 277 325 348 334 352 13 20 22 23 24 28 30 33 35 31 28 38 37
160 158 150 138 131 126 126 125 122 95 70 75 90 40 95 329 241 184 188 201 244 164 308 247 266 267 292 289 17 36 224 64 50 36 245 244 264 318 341 328 27 22 19 23 24 25 23 30 38 35 30 30 40 37
155 147 130 128 128 127 124 121 101 61 85 87 72 138 187 218 271 228 231 306 241 212 271 303 277 250 273 338 32 341 17 348 223 223 227 220 194 353 343 26 41 31 17 25 28 26 25 33 42 37 26 33 40 41
140 113 118 132 130 125 113 87 46 77 55 77 62 81 290 59 301 340 204 254 253 253 276 230 277 17 298 322 32 227 119 226 240 190 156 122 70 39 28 56 59 46 42 41 36 31 28 32 37 38 38 35 35 37
94 108 140 131 127 102 73 72 58 46 105 65 319 261 122 111 193 219 202 241 232 72 254 151 75 221 332 32 278 255 215 270 143 82 69 83 102 84 37 68 68 62 55 42 41 36 32 26 40 44 40 24 27 32
79 132 134 128 114 85 45 43 82 77 62 227 105 234 182 171 173 243 240 244 103 287 355 221 19 50 190 186 257 216 107 71 67 81 77 66 59 68 74 80 72 64 64 55 45 41 32 29 41 40 29 12 28 25
135 131 144 140 96 90 78 11 62 104 198 190 252 318 130 155 105 173 189 257 224 273 91 43 78 204 235 224 238 194 139 137 141 99 58 28 41 55 74 76 75 63 54 44 48 44 37 32 28 16 30 23 34 32
103 103 103 84 71 83 57 350 59 94 140 218 56 82 173 169 185 125 286 35 137 106 45 148 210 219 199 245 250 251 131 130 133 131 115 71 41 55 58 56 61 67 55 28 48 74 34 38 26 10 29 43 38 31
84 100 64 66 48 64 90 37 39 148 158 112 258 116 228 10 30 22 314 5 59 178 231 215 223 252 253 266 277 150 146 157 160 169 154 143 93 82 65 54 54 72 61 38 36 18 47 44 14 7 5 19 23 20
90 100 75 22 75 31 78 307 132 218 86 194 47 39 84 1 291 266 215 60 217 227 189 187 221 205 258 346 7 33 122 139 131 121 125 125 129 129 117 100 84 64 58 41 18 22 22 19 35 4 12 16 19 1
95 63 48 43 75 46 265 40 69 1 106 252 23 39 330 339 243 1 275 221 249 225 192 183 204 186 120 72 81 54 61 106 102 98 105 102 92 97 101 87 95 100 88 52 22 24 17 26 23 49 21 35 33 37
39 54 66 67 68 181 27 16 28 58 42 40 74 329 317 249 289 55 264 255 248 174 140 164 142 120 102 98 89 75 61 100 101 82 90 118 116 89 91 94 83 64 82 117 79 42 36 9 31 18 36 50 33 43
74 335 79 360 343 71 57 17 348 54 148 256 79 344 301 340 43 337 238 263 212 178 162 164 178 185 141 107 121 122 59 128 138 133 86 100 104 74 90 84 83 69 52 89 64 52 34 358 11 17 3 60 63 38
83 303 81 193 274 122 181 118 184 190 132 67 229 264 24 72 46 247 236 215 202 174 172 181 184 158 153 162 151 166 176 134 121 120 185 161 164 146 154 149 157 286 107 132 117 72 353 1 30 22 16 6 26 50
102 251 275 265 120 113 77 46 57 110 137 188 214 90 76 140 248 250 264 228 187 224 161 154 152 160 158 145 112 105 111 112 130 172 125 132 146 170 155 164 187 195 133 144 158 170 232 335 343 346 348 1 359 355
149 180 157 229 70 12 129 102 151 197 218 201 93 173 183 200 240 238 207 240 209 273 79 70 77 118 128 135 126 123 91 95 95 90 91 71 61 63 97 107 142 147 140 162 209 216 197 243 263 265 273 358 349 4
58 356 88 34 18 27 189 169 208 234 157 135 161 232 244 239 242 229 241 201 152 113 126 127 73 78 78 77 86 104 143 157 147 143 177 212 249 254 178 152 118 92 79 33 328 276 195 169 136 116 124 158 194 205
318 2 90 77 122 240 255 167 235 266 310 148 273 312 291 277 256 219 127 107 150 188 183 148 143 159 160 159 162 200 240 215 186 149 166 198 218 160 154 160 165 158 143 129 83 355 67 45 46 47 52 29 26 25
348 44 64 50 211 250 258 305 313 325 29 0 350 183 258 301 302 255 193 186 151 135 136 151 167 180 165 173 171 169 242 209 210 211 205 218 200 151 152 157 153 145 144 136 126 110 94 71 82 83 55 16 344 32
14 64 103 11 308 311 22 47 8 352 330 355 288 301 312 346 278 282 289 108 108 156 214 182 167 200 201 187 166 188 231 155 175 187 190 167 170 161 147 143 144 144 150 156 156 144 135 150 162 190 220 250 264 271
37 32 30 33 357 353 336 41 12 331 297 284 268 219 228 220 250 274 304 184 188 184 200 209 195 154 174 187 187 194 192 170 204 190 195 195 193 185 168 162 160 166 172 173 175 169 180 184 215 226 233 246 258 259